Terminal Aerodrome Forecast
Issued by NWS

Home | Current Version | Previous Version | Text Only | Print | Product List | Glossary On
Versions: 1 2 3 4 5 6 7 8 9 10 11 12 13 14 15 16 17 18 19 20 21 22 23 24 25 26 27 28
000
FTUS45 KGJT 282322
TAFCNY
TAF
KCNY 282322Z 2900/2924 18005KT P6SM VCTS SCT100CB BKN150
      TEMPO 2900/2902 VRB10G20KT -TSRA BKN080CB
     FM290200 27010KT P6SM VCSH OVC100
     FM290600 13007KT P6SM SCT100 BKN150
     FM291200 14005KT P6SM FEW100 BKN150
     FM291800 16006KT P6SM BKN200
     FM292100 22010G20KT P6SM SCT200=

USA.gov is the U.S. government's official web portal to all federal, state and local government web resources and services.